Regional Weather Roundup
Issued by NWS

Home | Current Version | Previous Version | Text Only | Print | Product List | Glossary On
Versions: 1 2 3 4 5 6 7 8 9 10 11 12 13 14 15 16 17 18 19 20 21 22 23 24 25 26 27 28 29 30 31 32 33 34 35 36 37 38 39 40 41 42 43 44 45 46 47 48 49 50
000
ASCA44 KEWX 301920
RWRMX

LATIN AMERICA AND CARIBBEAN REGIONAL WEATHER ROUNDUP
NATIONAL WEATHER SERVICE AUSTIN/SAN ANTONIO TX
100 PM CST FRI JAN 30 2015

NOTE: "FAIR" INDICATED FEW OR NO CLOUDS BELOW 12,000 FEET WITH NO
SIGNIFICANT WEATHER AND/OR OBSTRUCTIONS TO VISIBILITY.

BAJA CALIFORNIA

CITY           SKY/WX    TMP DP  RH WIND       PRES   REMARKS
LORETO         CLOUDY    66  63  88 CALM      29.93F
LA PAZ         CLOUDY    68  57  68 CALM      30.04
MEXICALI       CLOUDY    63  54  72 W6        29.93
S.J. DEL CABO  CLOUDY    77  57  50 CALM      30.00F
TIJUANA        CLOUDY    63  54  72 W6        29.96F

NORTHWESTERN MEXICO

CITY           SKY/WX    TMP DP  RH WIND       PRES   REMARKS
CULIACAN       CLOUDY    73  70  88 CALM      29.96  FOG
DURANGO        PTSUNNY   64  36  34 E6        30.21F
GUAYMAS        CLOUDY    66  64  94 CALM      29.92
HERMOSILLO     CLOUDY    68  64  88 SE10      29.98
CD. JUAREZ     CLOUDY    45  37  76 E14       30.18  WCI  38
LOS MOCHIS     PTSUNNY   77  55  47 NW12      29.99F
OBREGON        RAIN      64  63  94 CALM      29.97

NORTHEASTERN MEXICO

CITY           SKY/WX    TMP DP  RH WIND       PRES   REMARKS
CHIHUAHUA        N/A    N/A N/A N/A MISG        N/A
MATAMOROS      PTSUNNY   72  64  78 N12       30.32
MONTERREY      CLOUDY    66  57  72 E9        30.23F
NUEVO LAREDO   PTSUNNY   72  46  40 E7        30.30
PIEDRAS NEGRAS   N/A    N/A N/A N/A MISG        N/A
REYNOSA        PTSUNNY   70  57  64 NE14      30.26  HAZE
SALTILLO       CLOUDY    63  52  67 NW9       30.29F
TORREON        CLOUDY    68  43  40 NE18      30.20S
CD. VICTORIA   PTSUNNY   72  55  56 S9        30.25

WESTERN MEXICO

CITY           SKY/WX    TMP DP  RH WIND       PRES   REMARKS
AGUASCALIENTES PTSUNNY   61  23  23 SE6       30.30
COLIMA         CLOUDY    73  66  78 SW7       30.05F FOG
DEL BAJIO      CLOUDY    66  25  20 S7        30.32F
GUADALAJARA    PTSUNNY   70  28  21 SE9       30.20
MANZANILLO     MOSUNNY   82  73  74 SE12      29.90F
MAZATLAN       CLOUDY    75  66  73 S10       29.92F
P. VALLARTA    MOSUNNY   82  73  74 S6        29.91F
URUAPAN        PTSUNNY   73  55  53 S7        30.19F
ZACATECAS      PTSUNNY   64  28  25 SE17      30.29F

CENTRAL MEXICO

CITY           SKY/WX    TMP DP  RH WIND       PRES   REMARKS
CUERNAVACA     PTSUNNY   73  28  19 NE3       30.19F
MEXICO CITY    MOSUNNY   61  25  25 NE7       30.34F
MORELIA        MOSUNNY   66  36  32 N6        30.25
POZA RICA      PTSUNNY   73  64  73 N6        30.26F
PUEBLA         MOSUNNY   68  18  14 NE12      30.32F
QUERETARO      PTSUNNY   63  32  31 E16       30.35F
TAMPICO        LGT RAIN  66  63  88 W7        30.26F
TOLUCA         MOSUNNY   66  27  22 CALM      30.35F

SOUTHERN MEXICO

CITY           SKY/WX    TMP DP  RH WIND       PRES   REMARKS
ACAPULCO       SUNNY     84  73  70 SW8       29.94F HX  91
B. DE HUATULCO MOSUNNY   91  68  46 CALM      29.96  HX  95
OAXACA         MOSUNNY   68  36  30 N8        30.30F
P. ESCONDIDO   SUNNY     81  70  69 SW7       30.07F
VERACRUZ       PTSUNNY   77  59  53 E8        30.21F
ZIHUATANEJO    SUNNY     86  73  66 SW8       29.94F HX  93

YUCATAN PENINSULA

CITY           SKY/WX    TMP DP  RH WIND       PRES   REMARKS
CAMPECHE       MOSUNNY   79  59  50 N12       30.12F
CANCUN         MOSUNNY   79  61  53 E8        30.14F
CHETUMAL       MOSUNNY   79  63  57 CALM      30.11F
CD. DEL CARMEN SUNNY     75  63  64 N10       30.16
COZUMEL        MOSUNNY   75  63  64 NE15      30.14F
MERIDA         MOSUNNY   81  54  39 NE9       30.15F
MINATITLAN     PTSUNNY   75  68  78 N14       30.13
TAPACHULA      SUNNY     86  72  62 W12       29.91F HX  92
TUX. GUTIERREZ MOSUNNY   79  54  41 NW9       30.10F
VILLAHERMOSA   CLOUDY    75  64  69 E13       30.17F

CENTRAL AMERICA

CITY           SKY/WX    TMP DP  RH WIND       PRES   REMARKS
BELIZE CITY    PTSUNNY   81  63  54 N9        30.11F
MANAGUA        PTCLDY    90  63  40 E16       29.86S HX  90

CARIBBEAN

CITY           SKY/WX    TMP DP  RH WIND       PRES   REMARKS
ARUBA          MOSUNNY   88  72  58 E21       29.83F HX  94
CURACAO        MOSUNNY   84  72  65 E14       29.89F
KINGSTON       MOSUNNY   86  70  58 SW8       29.94F HX  90
SAN JUAN       MOSUNNY   82  72  69 E13       29.97S
SANTO DOMINGO  LGT RAIN  77  72  83 SE5       29.97S
ST. KITTS      MOSUNNY   82  70  65 NE10      29.94S
ST. MAARTEN    MOSUNNY   84  68  58 E8        29.94S

$$



USA.gov is the U.S. government's official web portal to all federal, state and local government web resources and services.